Time,TemperatureF,DewpointF,PressureIn,WindDirection,WindDirectionDegrees,WindSpeedMPH,WindSpeedGustMPH,Humidity,HourlyPrecipIn,Conditions,Clouds,dailyrainin,SoftwareType,DateUTC
2013-10-13 00:00:00,44.6,35.8,24.06,North,0,0.0,-999.0,71,0.00,,,0.00,,2013-10-13 07:00:00,
2013-10-13 01:00:00,44.3,37.2,24.05,North,0,0.0,-999.0,76,0.00,,,0.00,,2013-10-13 08:00:00,
2013-10-13 02:00:00,43.6,36.5,24.05,North,0,0.0,-999.0,76,0.00,,,0.00,,2013-10-13 09:00:00,
2013-10-13 03:00:00,43.2,36.5,24.03,North,0,0.0,-999.0,77,0.00,,,0.00,,2013-10-13 10:00:00,
2013-10-13 04:00:00,42.5,36.1,24.02,North,0,0.0,-999.0,78,0.00,,,0.00,,2013-10-13 11:00:00,
2013-10-13 05:00:00,41.4,35.3,24.03,North,0,0.0,-999.0,79,0.00,,,0.00,,2013-10-13 12:00:00,
2013-10-13 06:00:00,41.6,34.8,24.04,North,0,0.0,-999.0,77,0.00,,,0.00,,2013-10-13 13:00:00,
2013-10-13 07:05:00,39.4,33.9,24.04,North,0,0.0,-999.0,80,0.00,,,0.00,,2013-10-13 14:05:00,
2013-10-13 08:05:00,40.7,35.8,0.00,North,0,0.0,-999.0,83,0.00,,,0.00,,2013-10-13 15:05:00,
2013-10-13 09:05:00,43.9,36.8,0.00,North,0,0.0,-999.0,76,0.00,,,0.00,,2013-10-13 16:05:00,
2013-10-13 10:05:00,45.5,37.7,0.00,North,0,0.0,-999.0,74,0.00,,,0.00,,2013-10-13 17:05:00,
2013-10-13 11:05:00,47.2,37.2,0.00,North,0,0.0,-999.0,68,0.00,,,0.00,,2013-10-13 18:05:00,
2013-10-13 12:05:00,49.0,36.6,0.00,North,0,0.0,-999.0,62,0.00,,,0.00,,2013-10-13 19:05:00,
2013-10-13 13:05:00,50.9,34.8,0.00,North,0,0.0,-999.0,54,0.00,,,0.00,,2013-10-13 20:05:00,
2013-10-13 14:05:00,49.3,34.8,0.00,North,0,0.0,-999.0,57,0.00,,,0.00,,2013-10-13 21:05:00,
2013-10-13 15:05:00,48.8,34.7,0.00,North,0,0.0,-999.0,58,0.00,,,0.00,,2013-10-13 22:05:00,
2013-10-13 16:05:00,48.6,35.8,0.00,North,0,0.0,-999.0,61,0.00,,,0.00,,2013-10-13 23:05:00,
2013-10-13 17:05:00,45.7,36.5,0.00,North,0,0.0,-999.0,70,0.00,,,0.00,,2013-10-14 00:05:00,
2013-10-13 18:00:00,45.0,36.2,24.12,North,0,0.0,-999.0,71,0.00,,,0.00,,2013-10-14 01:00:00,
2013-10-13 19:00:00,43.2,35.8,24.11,North,0,0.0,-999.0,75,0.00,,,0.00,,2013-10-14 02:00:00,
2013-10-13 20:00:00,40.7,32.3,24.11,North,0,0.0,-999.0,72,0.00,,,0.00,,2013-10-14 03:00:00,
2013-10-13 21:00:00,40.0,32.3,24.14,North,0,0.0,-999.0,74,0.00,,,0.00,,2013-10-14 04:00:00,
2013-10-13 22:00:00,39.4,32.1,24.16,North,0,0.0,-999.0,75,0.00,,,0.00,,2013-10-14 05:00:00,
2013-10-13 23:00:00,39.2,31.6,24.17,North,0,0.0,-999.0,74,0.00,,,0.00,,2013-10-14 06:00:00,